Date,Time,Wetness (Wet Dry or Ice),Wind Speed (m/s),Temperature (C),Humidity (%),Pressure (mb),Radiation (W/m^2)
2023-03-14,01:50:00,DRY,4.37,9.67,23.0,776.00,0.0
2023-03-14,01:55:00,DRY,2.70,9.55,26.0,776.00,0.0
2023-03-14,02:00:00,DRY,2.80,9.70,26.0,776.00,0.0
2023-03-14,02:05:00,DRY,1.45,9.75,21.5,776.00,0.0
2023-03-14,02:10:00,DRY,3.93,10.17,21.3,776.00,0.0
2023-03-14,02:15:00,DRY,2.30,10.05,22.0,776.00,0.0
2023-03-14,02:20:00,DRY,3.30,9.87,24.7,776.00,0.0
2023-03-14,02:25:00,DRY,3.15,9.85,23.5,776.00,0.0
2023-03-14,02:30:00,DRY,2.73,9.90,24.3,776.00,0.0
2023-03-14,02:35:00,DRY,2.05,9.50,27.0,776.00,0.0
2023-03-14,02:40:00,DRY,3.63,9.43,28.7,775.67,0.0
2023-03-14,02:45:00,DRY,3.30,9.20,26.5,775.50,0.0
2023-03-14,02:50:00,DRY,2.10,9.50,25.3,775.00,0.0
2023-03-14,02:55:00,DRY,2.00,9.75,27.0,775.00,0.0
2023-03-14,03:00:00,DRY,1.30,9.60,28.0,775.00,0.0
2023-03-14,03:05:00,DRY,1.65,9.75,23.0,775.00,0.0
2023-03-14,03:10:00,DRY,1.97,10.13,19.3,775.00,0.0
2023-03-14,03:15:00,DRY,3.05,10.20,21.5,775.00,0.0
2023-03-14,03:20:00,DRY,2.13,10.60,17.0,775.00,0.0
2023-03-14,03:25:00,DRY,0.65,10.40,20.5,775.00,0.0
2023-03-14,03:30:00,DRY,1.43,10.20,18.0,775.00,0.0
2023-03-14,03:35:00,DRY,1.05,10.15,16.0,775.00,0.0
2023-03-14,03:40:00,DRY,1.30,10.23,16.0,775.00,0.0
2023-03-14,03:45:00,DRY,0.65,9.95,18.0,775.00,0.0
2023-03-14,03:50:00,DRY,0.77,9.87,15.3,775.00,0.0
2023-03-14,03:55:00,DRY,0.60,9.90,14.5,775.00,0.0
2023-03-14,04:00:00,DRY,1.17,9.87,16.0,775.00,0.0
2023-03-14,04:05:00,DRY,1.40,10.00,17.0,775.00,0.0
2023-03-14,04:10:00,DRY,0.70,10.53,15.7,775.00,0.0
2023-03-14,04:15:00,DRY,0.70,10.45,15.5,775.00,0.0
2023-03-14,04:20:00,DRY,0.40,10.07,14.0,775.00,0.0
2023-03-14,04:25:00,DRY,0.55,10.20,14.0,775.00,0.0
2023-03-14,04:30:00,DRY,0.50,10.10,14.7,775.00,0.0
2023-03-14,04:35:00,DRY,0.55,10.05,14.0,775.00,0.0
2023-03-14,04:40:00,DRY,0.50,9.93,13.7,775.00,0.0
2023-03-14,04:45:00,DRY,0.75,10.20,13.0,775.00,0.0
2023-03-14,04:50:00,DRY,0.30,10.43,12.3,775.00,0.0
2023-03-14,04:55:00,DRY,0.45,10.20,11.0,775.00,0.0
2023-03-14,05:00:00,DRY,0.40,10.27,11.0,775.00,0.0
2023-03-14,05:05:00,DRY,0.25,10.45,10.5,775.00,0.0
2023-03-14,05:10:00,DRY,0.83,10.60,10.0,775.00,0.0
2023-03-14,05:15:00,DRY,1.95,10.90,9.5,775.00,0.0
2023-03-14,05:20:00,DRY,1.33,11.40,8.7,775.00,0.0
2023-03-14,05:25:00,DRY,1.50,11.30,9.0,775.00,0.0
2023-03-14,05:30:00,DRY,1.20,11.37,8.3,775.00,0.0
2023-03-14,05:35:00,DRY,1.10,11.45,8.0,775.00,0.0
2023-03-14,05:40:00,DRY,0.97,11.50,8.0,775.00,0.0
2023-03-14,05:45:00,DRY,0.45,11.70,8.0,775.00,0.0
2023-03-14,05:50:00,DRY,0.77,11.43,8.0,775.00,0.0
2023-03-14,05:55:00,DRY,0.50,11.15,8.0,775.00,0.0
2023-03-14,06:00:00,DRY,0.57,11.00,8.0,775.00,0.0
2023-03-14,06:05:00,DRY,1.05,11.05,8.0,775.00,0.0
2023-03-14,06:10:00,DRY,1.33,11.10,8.0,775.00,0.0
2023-03-14,06:15:00,DRY,2.15,10.80,8.0,775.00,0.0
2023-03-14,06:20:00,DRY,1.30,10.93,8.0,775.00,0.0
2023-03-14,06:25:00,DRY,0.85,11.20,7.0,775.00,0.0
2023-03-14,06:30:00,DRY,1.10,11.23,8.0,775.00,0.0
2023-03-14,06:35:00,DRY,1.15,11.25,7.5,775.00,0.0
2023-03-14,06:40:00,DRY,1.13,11.07,8.0,775.00,0.0
2023-03-14,06:45:00,DRY,0.80,11.20,7.5,775.00,0.0
2023-03-14,06:50:00,DRY,1.33,11.13,7.7,775.00,0.0
2023-03-14,06:55:00,DRY,1.45,10.95,7.5,775.00,0.0
2023-03-14,07:00:00,DRY,1.13,11.03,7.7,775.00,0.0
2023-03-14,07:05:00,DRY,1.75,11.30,8.0,775.00,0.0
2023-03-14,07:10:00,DRY,1.13,11.03,8.0,775.00,0.0
2023-03-14,07:15:00,DRY,1.00,11.00,8.0,775.00,0.0
2023-03-14,07:20:00,DRY,0.77,11.00,8.0,775.00,0.0
2023-03-14,07:25:00,DRY,0.55,10.75,9.0,775.00,0.0
2023-03-14,07:30:00,DRY,1.10,10.80,8.3,775.00,1.7
2023-03-14,07:35:00,DRY,0.80,11.00,8.0,775.00,5.5
2023-03-14,07:40:00,DRY,1.00,11.10,8.0,775.00,8.3
2023-03-14,07:45:00,DRY,1.10,11.30,8.0,775.00,11.5
2023-03-14,07:50:00,DRY,0.57,11.37,8.0,775.00,15.0
2023-03-14,07:55:00,DRY,0.30,11.20,8.0,775.00,17.0
2023-03-14,08:00:00,DRY,0.80,11.40,8.7,775.00,75.0
2023-03-14,08:05:00,DRY,0.90,11.55,9.0,775.00,159.0
2023-03-14,08:10:00,DRY,0.67,11.80,8.0,775.00,180.7
2023-03-14,08:15:00,DRY,0.60,12.35,8.0,775.00,201.0
2023-03-14,08:20:00,DRY,0.37,12.93,7.3,775.00,221.7
2023-03-14,08:25:00,DRY,0.60,13.35,7.5,775.00,241.5
2023-03-14,08:30:00,DRY,0.87,13.60,7.3,775.00,262.0
2023-03-14,08:35:00,DRY,0.40,13.95,7.0,775.00,285.0
2023-03-14,08:40:00,DRY,1.00,14.03,7.7,776.00,288.3
2023-03-14,08:45:00,DRY,1.65,13.80,7.5,776.00,331.0
2023-03-14,08:50:00,DRY,1.60,13.70,7.3,776.00,353.3
2023-03-14,08:55:00,DRY,1.15,13.60,7.0,776.00,374.5
2023-03-14,09:00:00,DRY,0.87,13.83,8.0,776.00,392.7
2023-03-14,09:05:00,DRY,0.50,14.30,8.0,776.00,420.0
2023-03-14,09:10:00,DRY,0.60,14.13,8.0,776.00,437.0
2023-03-14,09:15:00,DRY,0.95,14.00,9.0,776.00,459.0
2023-03-14,09:20:00,DRY,0.57,13.93,10.3,776.00,482.7
2023-03-14,09:25:00,DRY,0.50,14.20,10.5,776.00,504.5
2023-03-14,09:30:00,DRY,0.83,14.23,11.0,776.00,521.0
2023-03-14,09:35:00,DRY,1.10,14.10,14.5,776.00,533.5
2023-03-14,09:40:00,DRY,0.73,13.83,14.0,776.00,565.0
2023-03-14,09:45:00,DRY,0.55,13.95,13.5,776.00,604.0
2023-03-14,09:50:00,DRY,0.90,14.03,13.3,776.00,549.3
2023-03-14,09:55:00,DRY,0.95,14.00,15.0,776.00,467.5
2023-03-14,10:00:00,DRY,1.47,13.70,18.7,776.00,617.3
2023-03-14,10:05:00,DRY,1.80,13.55,18.0,776.00,682.5
2023-03-14,10:10:00,DRY,0.83,13.67,18.3,776.00,681.3
2023-03-14,10:15:00,DRY,0.70,13.65,16.5,776.00,653.0
2023-03-14,10:20:00,DRY,1.00,13.93,19.0,776.00,730.3
2023-03-14,10:25:00,DRY,1.35,14.15,21.5,776.00,755.5
2023-03-14,10:30:00,DRY,1.50,13.93,22.3,776.00,648.0
2023-03-14,10:35:00,DRY,0.75,13.75,24.0,776.00,658.5
2023-03-14,10:40:00,DRY,0.83,14.03,25.0,776.00,621.0
2023-03-14,10:45:00,DRY,0.90,13.65,27.0,776.00,494.5
2023-03-14,10:50:00,DRY,1.60,13.17,27.0,776.00,646.3
2023-03-14,10:55:00,DRY,1.55,13.30,26.5,776.00,610.5
2023-03-14,11:00:00,DRY,1.30,13.17,28.3,776.00,636.7
2023-03-14,11:05:00,DRY,1.40,13.25,29.0,776.00,779.5
2023-03-14,11:10:00,DRY,1.83,13.13,29.0,776.00,790.7
2023-03-14,11:15:00,DRY,1.30,13.10,30.5,776.00,780.5
2023-03-14,11:20:00,DRY,1.43,13.47,27.7,776.00,756.7
2023-03-14,11:25:00,DRY,1.05,13.55,29.5,776.00,800.0
2023-03-14,11:30:00,DRY,0.70,13.87,29.0,776.00,800.0
2023-03-14,11:35:00,DRY,1.90,14.30,29.0,776.00,800.5
2023-03-14,11:40:00,DRY,0.80,14.17,33.7,776.00,800.0
2023-03-14,11:45:00,DRY,0.90,13.60,31.0,776.00,800.5
2023-03-14,11:50:00,DRY,1.00,13.90,31.7,776.00,800.3
2023-03-14,11:55:00,DRY,2.20,14.10,32.0,776.00,800.0
2023-03-14,12:00:00,DRY,1.57,14.07,31.0,776.00,800.0
2023-03-14,12:05:00,DRY,1.20,13.75,31.5,776.00,800.0
2023-03-14,12:10:00,DRY,2.20,13.47,33.0,776.00,800.3
2023-03-14,12:15:00,DRY,2.30,13.75,33.0,776.00,801.0
2023-03-14,12:20:00,DRY,1.57,13.77,33.3,776.00,800.0
2023-03-14,12:25:00,DRY,1.30,14.25,33.0,776.00,800.5
2023-03-14,12:30:00,DRY,1.83,14.43,34.3,776.00,800.0
2023-03-14,12:35:00,DRY,1.85,14.60,34.5,776.00,800.5
2023-03-14,12:40:00,DRY,1.63,13.93,35.0,776.00,800.3
2023-03-14,12:45:00,DRY,1.95,14.15,36.5,776.00,800.0
2023-03-14,12:50:00,DRY,1.30,14.47,34.3,776.00,800.0
2023-03-14,12:55:00,DRY,1.80,14.30,34.0,776.00,800.0
2023-03-14,13:00:00,DRY,1.20,14.33,34.3,776.00,800.7
2023-03-14,13:05:00,DRY,2.50,14.75,35.5,776.00,800.0
2023-03-14,13:10:00,DRY,1.17,15.00,33.7,775.67,800.3
2023-03-14,13:15:00,DRY,2.00,14.95,35.0,776.00,800.5
2023-03-14,13:20:00,DRY,1.27,14.93,34.7,775.33,800.3
2023-03-14,13:25:00,DRY,0.85,14.80,35.5,775.00,801.0
2023-03-14,13:30:00,DRY,1.65,14.80,40.0,775.00,800.0
2023-03-14,13:35:00,DRY,2.00,15.00,39.0,775.00,800.0
2023-03-14,13:40:00,DRY,1.03,14.87,40.0,775.00,800.3
2023-03-14,13:45:00,DRY,1.25,14.70,41.0,775.00,800.5
2023-03-14,13:50:00,DRY,1.50,14.00,43.0,775.00,800.3
2023-03-14,13:55:00,DRY,0.90,13.65,45.5,775.00,800.0
2023-03-14,14:00:00,DRY,1.87,14.13,40.7,775.00,800.3
2023-03-14,14:05:00,DRY,1.00,14.55,41.0,775.00,801.0
2023-03-14,14:10:00,DRY,1.83,14.00,45.7,775.00,801.0
2023-03-14,14:15:00,DRY,1.53,13.57,45.3,775.00,800.7
2023-03-14,14:20:00,DRY,1.90,13.50,49.0,775.00,801.0
2023-03-14,14:25:00,DRY,2.20,13.70,47.5,775.00,801.0
2023-03-14,14:30:00,DRY,1.77,14.27,43.3,775.00,801.0
2023-03-14,14:35:00,DRY,2.25,13.75,47.0,775.00,800.0
2023-03-14,14:40:00,DRY,1.47,13.30,48.3,775.00,800.7
2023-03-14,14:45:00,DRY,2.75,14.35,47.0,775.00,800.5
2023-03-14,14:50:00,DRY,2.03,13.70,48.7,775.00,800.0
2023-03-14,14:55:00,DRY,2.60,13.60,49.5,775.00,800.5
2023-03-14,15:00:00,DRY,1.33,13.07,50.7,775.00,800.3
2023-03-14,15:05:00,DRY,1.85,14.05,48.5,775.00,800.5
2023-03-14,15:10:00,DRY,1.80,13.60,49.3,775.00,800.7
2023-03-14,15:15:00,DRY,1.15,13.15,50.5,775.00,800.5
2023-03-14,15:20:00,DRY,1.80,13.50,49.7,774.67,800.7
2023-03-14,15:25:00,DRY,1.30,13.40,49.5,774.00,800.5
2023-03-14,15:30:00,DRY,1.67,13.30,51.0,774.00,799.3
2023-03-14,15:35:00,DRY,1.50,13.25,51.0,774.00,788.5
2023-03-14,15:40:00,DRY,1.73,13.17,52.7,774.00,777.3
2023-03-14,15:45:00,DRY,1.35,13.05,52.0,774.00,756.0
2023-03-14,15:50:00,DRY,1.37,13.40,50.3,774.00,734.3
2023-03-14,15:55:00,DRY,1.05,13.10,51.5,774.00,719.5
2023-03-14,16:00:00,DRY,0.93,13.33,51.7,774.00,711.7
2023-03-14,16:05:00,DRY,2.65,13.30,51.0,774.00,707.0
2023-03-14,16:10:00,DRY,0.87,12.93,52.3,774.00,680.0
2023-03-14,16:15:00,DRY,1.85,13.65,51.0,774.00,671.5
2023-03-14,16:20:00,DRY,1.53,12.70,53.3,774.00,652.0
2023-03-14,16:25:00,DRY,1.75,12.65,54.0,774.00,634.0
2023-03-14,16:30:00,DRY,1.40,12.07,55.7,774.00,617.0
2023-03-14,16:35:00,DRY,1.10,12.15,55.5,774.00,602.0
2023-03-14,16:40:00,DRY,1.53,12.77,53.7,774.00,584.7
2023-03-14,16:45:00,DRY,1.95,12.00,59.5,774.00,559.5
2023-03-14,16:50:00,DRY,1.73,12.53,56.7,774.00,515.7
2023-03-14,16:55:00,DRY,0.90,12.35,54.5,774.00,450.0
2023-03-14,17:00:00,DRY,1.30,12.70,51.0,774.00,403.0
2023-03-14,17:05:00,DRY,1.00,13.25,50.0,774.00,467.0
2023-03-14,17:10:00,DRY,1.60,13.20,45.3,774.00,479.7
2023-03-14,17:15:00,DRY,0.85,13.50,45.5,774.00,469.5
2023-03-14,17:20:00,DRY,0.70,14.03,43.7,774.00,441.0
2023-03-14,17:25:00,DRY,0.95,14.20,46.0,774.00,404.0
2023-03-14,17:30:00,DRY,1.03,13.77,45.7,774.00,379.7
2023-03-14,17:35:00,DRY,1.50,13.80,44.5,774.00,347.5
2023-03-14,17:40:00,DRY,0.90,13.63,46.0,774.00,347.0
2023-03-14,17:45:00,DRY,1.15,13.70,44.5,774.00,329.5
2023-03-14,17:50:00,DRY,1.40,13.10,45.7,774.00,313.7
2023-03-14,17:55:00,DRY,1.05,13.20,45.5,774.00,293.5
2023-03-14,18:00:00,DRY,1.13,12.97,45.7,774.00,264.3
2023-03-14,18:05:00,DRY,1.65,13.15,41.0,774.00,248.5
2023-03-14,18:10:00,DRY,1.53,13.30,42.0,774.00,200.7
2023-03-14,18:15:00,DRY,1.10,13.35,40.0,774.00,152.0
2023-03-14,18:20:00,DRY,0.57,13.03,43.7,774.00,157.3
2023-03-14,18:25:00,DRY,1.60,12.55,46.0,774.00,133.5
2023-03-14,18:30:00,DRY,1.60,12.40,43.0,774.00,148.0
2023-03-14,18:35:00,DRY,1.10,12.65,42.0,774.00,126.5
2023-03-14,18:40:00,DRY,1.23,12.57,32.0,774.00,36.3
2023-03-14,18:45:00,DRY,1.45,12.35,25.5,774.00,26.5
2023-03-14,18:50:00,DRY,1.20,12.30,25.0,774.00,23.3
2023-03-14,18:55:00,DRY,0.70,12.30,18.5,774.00,19.5
2023-03-14,19:00:00,DRY,1.23,12.20,15.7,774.00,15.3
2023-03-14,19:05:00,DRY,1.80,12.00,18.5,774.00,11.0
2023-03-14,19:10:00,DRY,1.40,11.90,22.3,774.00,4.7
2023-03-14,19:15:00,DRY,1.10,11.75,18.0,774.00,0.0
2023-03-14,19:20:00,DRY,1.60,11.57,13.7,774.00,1.0
2023-03-14,19:25:00,DRY,1.65,11.40,13.5,774.00,0.0
2023-03-14,19:30:00,DRY,0.97,11.20,11.3,774.00,0.0
2023-03-14,19:35:00,DRY,0.80,11.05,11.0,774.00,0.0
2023-03-14,19:40:00,DRY,1.07,10.73,10.7,774.00,0.0
2023-03-14,19:45:00,DRY,0.85,10.65,10.0,774.00,0.0
2023-03-14,19:50:00,DRY,0.87,10.60,10.0,774.00,0.0
2023-03-14,19:55:00,DRY,0.60,10.55,10.0,774.00,0.0
2023-03-14,20:00:00,DRY,0.43,10.30,10.0,774.00,0.0
2023-03-14,20:05:00,DRY,0.65,10.20,10.0,774.00,0.0
2023-03-14,20:10:00,DRY,0.43,10.10,10.0,774.00,0.0
2023-03-14,20:15:00,DRY,0.45,10.00,10.0,774.00,0.0
2023-03-14,20:20:00,DRY,0.87,9.90,10.0,774.00,0.0
2023-03-14,20:25:00,DRY,0.65,9.80,10.0,774.00,0.0
2023-03-14,20:30:00,DRY,0.60,9.73,9.7,774.00,0.0
2023-03-14,20:35:00,DRY,0.55,9.80,9.0,774.00,0.0
2023-03-14,20:40:00,DRY,0.40,9.80,9.0,774.00,0.0
2023-03-14,20:45:00,DRY,0.35,9.80,9.0,774.00,0.0
2023-03-14,20:50:00,DRY,0.70,9.63,9.3,774.00,0.0
2023-03-14,20:55:00,DRY,0.70,9.60,10.0,774.00,0.0
2023-03-14,21:00:00,DRY,0.43,9.53,9.3,774.00,0.0
2023-03-14,21:05:00,DRY,0.45,9.40,9.0,774.00,0.0
2023-03-14,21:10:00,DRY,0.67,9.53,9.0,774.00,0.0
2023-03-14,21:15:00,DRY,0.75,9.60,9.0,774.00,0.0
2023-03-14,21:20:00,DRY,0.57,9.60,9.0,774.00,0.0
2023-03-14,21:25:00,DRY,1.35,9.75,8.5,774.00,0.0
2023-03-14,21:30:00,DRY,1.27,10.13,8.3,774.00,0.0
2023-03-14,21:35:00,DRY,1.60,10.05,9.0,774.00,0.0
2023-03-14,21:40:00,DRY,1.03,10.33,8.3,774.00,0.0
2023-03-14,21:45:00,DRY,0.95,10.70,7.5,774.00,0.0
2023-03-14,21:50:00,DRY,0.77,10.90,7.0,774.00,0.0
2023-03-14,21:55:00,DRY,1.00,10.85,7.5,774.00,0.0
2023-03-14,22:00:00,DRY,0.83,10.90,7.7,774.00,0.0
2023-03-14,22:05:00,DRY,0.60,10.75,8.0,774.00,0.0
2023-03-14,22:10:00,DRY,0.83,10.43,8.0,774.00,0.0
2023-03-14,22:15:00,DRY,0.95,10.25,9.0,774.00,0.0
2023-03-14,22:20:00,DRY,1.23,9.90,9.0,774.00,0.0
2023-03-14,22:25:00,DRY,1.00,9.70,10.0,774.00,0.0
2023-03-14,22:30:00,DRY,1.00,9.60,9.3,774.00,0.0
2023-03-14,22:35:00,DRY,0.60,9.60,9.0,774.00,0.0
2023-03-14,22:40:00,DRY,0.90,9.50,9.0,774.00,0.0
2023-03-14,22:45:00,DRY,0.70,9.65,9.0,774.00,0.0
2023-03-14,22:50:00,DRY,0.87,9.60,9.3,774.00,0.0
2023-03-14,22:55:00,DRY,0.95,9.45,10.0,774.00,0.0
2023-03-14,23:00:00,DRY,1.23,9.33,10.0,774.00,0.0
2023-03-14,23:05:00,DRY,1.45,9.45,10.0,774.00,0.0
2023-03-14,23:10:00,DRY,1.00,9.50,9.0,774.00,0.0
2023-03-14,23:15:00,DRY,1.05,9.45,9.0,774.00,0.0
2023-03-14,23:20:00,DRY,1.13,9.47,9.0,774.00,0.0
2023-03-14,23:25:00,DRY,1.05,9.45,9.5,774.00,0.0
2023-03-14,23:30:00,DRY,1.07,9.53,9.3,774.00,0.0
2023-03-14,23:35:00,DRY,1.05,9.80,9.0,774.00,0.0
2023-03-14,23:40:00,DRY,1.53,9.63,9.7,774.00,0.0
2023-03-14,23:45:00,DRY,1.00,9.50,9.5,774.00,0.0
2023-03-14,23:50:00,DRY,0.97,9.67,9.0,774.00,0.0
2023-03-14,23:55:00,DRY,1.25,9.90,9.0,774.00,0.0
2023-03-15,00:00:00,DRY,1.13,9.77,9.3,774.00,0.0
2023-03-15,00:05:00,DRY,1.00,9.70,9.0,774.00,0.0
2023-03-15,00:10:00,DRY,0.90,9.90,9.0,774.00,0.0
2023-03-15,00:15:00,DRY,0.80,9.75,9.0,773.00,0.0
2023-03-15,00:20:00,DRY,0.83,9.67,9.0,773.00,0.0
2023-03-15,00:25:00,DRY,0.55,9.55,9.0,773.00,0.0
2023-03-15,00:30:00,DRY,0.70,9.43,10.0,773.00,0.0
2023-03-15,00:35:00,DRY,0.95,9.30,10.0,773.00,0.0
2023-03-15,00:40:00,DRY,1.33,9.30,10.0,773.00,0.0
2023-03-15,00:45:00,DRY,0.75,9.40,10.0,773.00,0.0
2023-03-15,00:50:00,DRY,0.47,9.30,9.7,773.00,0.0
2023-03-15,00:55:00,DRY,0.65,9.20,9.0,773.00,0.0
2023-03-15,01:00:00,DRY,0.57,9.47,9.0,773.00,0.0
2023-03-15,01:05:00,DRY,0.50,9.75,9.0,773.00,0.0
2023-03-15,01:10:00,DRY,0.67,9.83,8.7,773.00,0.0
2023-03-15,01:15:00,DRY,0.90,9.75,9.0,773.00,0.0
2023-03-15,01:20:00,DRY,0.43,9.57,9.0,773.00,0.0
2023-03-15,01:25:00,DRY,0.85,9.60,9.0,773.00,0.0
2023-03-15,01:30:00,DRY,0.50,9.90,8.0,773.00,0.0
2023-03-15,01:35:00,DRY,0.40,10.00,8.0,773.00,0.0
2023-03-15,01:40:00,DRY,0.57,10.00,8.0,773.00,0.0
2023-03-15,01:45:00,DRY,0.70,10.05,8.0,773.00,0.0
2023-03-15,01:50:00,DRY,0.60,10.20,8.0,773.00,0.0
2023-03-15,01:55:00,DRY,0.35,10.10,8.0,773.00,0.0
2023-03-15,02:00:00,DRY,0.97,10.03,8.0,773.00,0.0
2023-03-15,02:05:00,DRY,0.90,10.25,8.0,773.00,0.0
2023-03-15,02:10:00,DRY,0.63,10.43,8.0,773.00,0.0
2023-03-15,02:15:00,DRY,0.85,10.30,8.0,773.00,0.0
2023-03-15,02:20:00,DRY,0.53,10.13,8.3,773.00,0.0
2023-03-15,02:25:00,DRY,0.70,10.10,8.0,773.00,0.0
2023-03-15,02:30:00,DRY,0.73,10.07,8.0,773.00,0.0
2023-03-15,02:35:00,DRY,0.50,10.20,8.0,773.00,0.0
2023-03-15,02:40:00,DRY,0.87,10.40,8.0,773.00,0.0
2023-03-15,02:45:00,DRY,1.00,10.60,8.0,773.00,0.0
2023-03-15,02:50:00,DRY,1.07,10.60,7.7,773.00,0.0
2023-03-15,02:55:00,DRY,1.15,10.70,7.0,772.50,0.0
2023-03-15,03:00:00,DRY,1.07,10.70,7.0,772.00,0.0
2023-03-15,03:05:00,DRY,1.05,10.70,7.0,772.00,0.0
2023-03-15,03:10:00,DRY,0.77,10.67,7.0,772.67,0.0
2023-03-15,03:15:00,DRY,0.70,10.55,7.0,772.00,0.0
2023-03-15,03:20:00,DRY,1.13,10.57,7.0,772.00,0.0
2023-03-15,03:25:00,DRY,0.90,10.60,8.0,772.00,0.0
2023-03-15,03:30:00,DRY,0.43,10.60,7.0,772.00,0.0
2023-03-15,03:35:00,DRY,0.30,10.25,7.5,772.00,0.0
2023-03-15,03:40:00,DRY,0.53,10.03,7.3,772.00,0.0
2023-03-15,03:45:00,DRY,0.50,10.20,3.5,772.00,0.0
2023-03-15,03:50:00,DRY,0.47,10.33,8.0,772.00,0.0
2023-03-15,03:55:00,DRY,0.60,10.35,7.5,772.00,0.0
2023-03-15,04:00:00,DRY,0.70,10.73,7.0,772.00,0.0
2023-03-15,04:05:00,DRY,0.60,10.50,7.0,772.00,0.0
2023-03-15,04:10:00,DRY,0.63,10.40,7.0,772.00,0.0
2023-03-15,04:15:00,DRY,0.90,10.40,8.0,772.00,0.0
2023-03-15,04:20:00,DRY,1.20,10.27,8.0,772.00,0.0
2023-03-15,04:25:00,DRY,1.20,10.40,7.5,772.00,0.0
2023-03-15,04:30:00,DRY,1.00,10.80,7.0,772.00,0.0
2023-03-15,04:35:00,DRY,1.15,11.05,6.5,772.00,0.0
2023-03-15,04:40:00,DRY,1.13,11.17,6.0,772.00,0.0
2023-03-15,04:45:00,DRY,0.95,11.00,6.0,772.00,0.0
2023-03-15,04:50:00,DRY,0.70,10.97,6.7,772.00,0.0
2023-03-15,04:55:00,DRY,1.30,10.60,7.0,772.00,0.0
2023-03-15,05:00:00,DRY,1.77,10.67,6.3,772.00,0.0
2023-03-15,05:05:00,DRY,1.90,10.80,7.0,772.00,0.0
2023-03-15,05:10:00,DRY,1.93,10.67,7.0,772.00,0.0
2023-03-15,05:15:00,DRY,1.30,10.65,7.0,772.00,0.0
2023-03-15,05:20:00,DRY,1.07,10.27,7.0,772.00,0.0
2023-03-15,05:25:00,DRY,0.90,10.15,8.0,772.00,0.0
2023-03-15,05:30:00,DRY,0.90,10.10,8.0,772.00,0.0
2023-03-15,05:35:00,DRY,1.35,10.00,8.0,772.00,0.0
2023-03-15,05:40:00,DRY,1.13,9.67,8.3,772.00,0.0
2023-03-15,05:45:00,DRY,0.95,9.95,8.0,772.00,0.0
2023-03-15,05:50:00,DRY,0.40,10.03,5.3,772.00,0.0
2023-03-15,05:55:00,DRY,0.65,10.00,8.0,772.00,0.0
2023-03-15,06:00:00,DRY,0.70,10.10,7.0,772.00,0.0
2023-03-15,06:05:00,DRY,0.90,10.10,7.0,772.00,0.0
2023-03-15,06:10:00,DRY,1.80,10.47,6.7,772.00,0.0
2023-03-15,06:15:00,DRY,2.40,10.80,7.0,772.00,0.0
2023-03-15,06:20:00,DRY,2.37,10.07,7.7,772.00,0.0
2023-03-15,06:25:00,DRY,2.65,9.55,8.0,772.00,0.0
2023-03-15,06:30:00,DRY,2.97,9.40,8.0,772.00,0.0
2023-03-15,06:35:00,DRY,3.30,9.35,8.0,772.00,0.0
2023-03-15,06:40:00,DRY,3.23,10.20,7.0,772.00,0.0
2023-03-15,06:45:00,DRY,2.20,10.60,7.0,772.00,0.0
2023-03-15,06:50:00,DRY,3.63,10.57,7.0,772.00,0.0
2023-03-15,06:55:00,DRY,3.80,10.75,6.0,772.00,0.0
2023-03-15,07:00:00,DRY,3.10,10.97,6.0,772.00,0.0
2023-03-15,07:05:00,DRY,3.30,11.10,6.0,772.00,0.0
2023-03-15,07:10:00,DRY,3.47,10.83,6.3,772.00,0.0
2023-03-15,07:15:00,DRY,3.65,11.00,6.0,772.00,0.0
2023-03-15,07:20:00,DRY,3.60,10.97,6.3,772.00,0.0
2023-03-15,07:25:00,DRY,3.50,10.65,7.0,772.00,0.0
2023-03-15,07:30:00,DRY,2.87,10.90,6.0,772.00,5.0
2023-03-15,07:35:00,DRY,3.15,10.90,5.5,772.00,9.5
2023-03-15,07:40:00,DRY,4.30,11.23,5.7,772.00,14.7
2023-03-15,07:45:00,DRY,3.40,11.30,6.0,772.00,19.0
2023-03-15,07:50:00,DRY,4.00,11.40,6.0,772.00,23.3
2023-03-15,07:55:00,DRY,2.65,11.25,6.0,772.00,28.0
2023-03-15,08:00:00,DRY,3.63,11.27,5.7,772.00,36.0
2023-03-15,08:05:00,DRY,3.55,11.70,5.0,772.00,125.5
2023-03-15,08:10:00,DRY,3.57,11.73,5.7,772.00,133.3
2023-03-15,08:15:00,DRY,3.10,11.85,6.0,772.00,127.5
2023-03-15,08:20:00,DRY,2.87,11.93,5.7,772.00,174.0
2023-03-15,08:25:00,DRY,3.70,11.75,6.0,772.00,250.5
2023-03-15,08:30:00,DRY,3.10,12.07,6.0,772.00,306.0
2023-03-15,08:35:00,DRY,3.15,12.00,6.0,772.00,327.5
2023-03-15,08:40:00,DRY,3.10,12.17,6.3,772.00,305.0
2023-03-15,08:45:00,DRY,3.60,12.35,6.5,772.00,285.5
2023-03-15,08:50:00,DRY,3.30,12.00,6.3,772.00,322.0
2023-03-15,08:55:00,DRY,3.85,11.95,7.0,772.00,369.5
2023-03-15,09:00:00,DRY,2.57,12.13,7.3,772.00,364.3
2023-03-15,09:05:00,DRY,1.75,12.15,7.5,772.00,366.0
2023-03-15,09:10:00,DRY,1.70,12.17,7.7,772.00,413.0
2023-03-15,09:15:00,DRY,3.85,12.15,7.0,772.00,441.5
2023-03-15,09:20:00,DRY,3.33,12.33,7.0,772.00,484.0
2023-03-15,09:25:00,DRY,1.90,12.40,7.0,772.00,472.5
2023-03-15,09:30:00,DRY,3.10,12.53,7.3,772.00,507.0
2023-03-15,09:35:00,DRY,2.45,12.75,7.5,772.00,562.0
2023-03-15,09:40:00,DRY,3.23,12.90,7.3,772.00,580.7
2023-03-15,09:45:00,DRY,2.35,12.95,7.5,772.00,601.0
2023-03-15,09:50:00,DRY,1.63,13.03,8.0,772.00,618.0
2023-03-15,09:55:00,DRY,2.25,13.10,8.0,772.00,625.0
2023-03-15,10:00:00,DRY,2.30,13.00,8.3,772.67,647.3
2023-03-15,10:05:00,DRY,1.55,13.05,8.5,773.00,673.0
2023-03-15,10:10:00,DRY,2.63,13.23,7.0,773.00,690.0
2023-03-15,10:15:00,DRY,4.35,13.30,6.0,772.50,688.5
2023-03-15,10:20:00,DRY,2.67,13.43,7.0,773.00,643.0
2023-03-15,10:25:00,DRY,2.50,13.50,7.5,773.00,643.0
2023-03-15,10:30:00,DRY,3.10,13.50,7.0,773.00,668.3
2023-03-15,10:35:00,DRY,3.60,13.50,7.0,773.00,726.0
2023-03-15,10:40:00,DRY,4.83,13.60,6.0,773.00,767.0
2023-03-15,10:45:00,DRY,5.25,13.60,6.5,773.00,800.0
2023-03-15,10:50:00,DRY,4.07,13.67,5.7,773.00,792.7
2023-03-15,10:55:00,DRY,2.80,13.80,5.5,773.00,800.0
2023-03-15,11:00:00,DRY,3.27,13.83,6.3,773.00,800.0
2023-03-15,11:05:00,DRY,3.85,14.10,6.0,773.00,800.0
2023-03-15,11:10:00,DRY,3.10,14.07,6.0,773.00,800.3
2023-03-15,11:15:00,DRY,3.40,14.25,6.5,773.00,800.0
2023-03-15,11:20:00,DRY,2.93,14.43,6.7,772.33,800.0
2023-03-15,11:25:00,DRY,2.30,14.65,6.5,773.00,800.0
2023-03-15,11:30:00,DRY,3.63,14.73,7.3,772.67,800.0
2023-03-15,11:35:00,DRY,2.40,14.75,7.0,772.50,800.0
2023-03-15,11:40:00,DRY,4.77,14.77,6.3,772.33,800.3
2023-03-15,11:45:00,DRY,3.75,14.70,7.0,773.00,800.5
2023-03-15,11:50:00,DRY,1.97,14.87,7.0,772.00,800.0
2023-03-15,11:55:00,DRY,2.10,15.05,6.5,772.50,800.0
2023-03-15,12:00:00,DRY,3.87,15.03,6.7,772.33,800.0
2023-03-15,12:05:00,DRY,4.80,15.00,6.5,772.00,800.5
2023-03-15,12:10:00,DRY,2.40,14.87,6.3,772.33,800.0
2023-03-15,12:15:00,DRY,4.45,15.05,6.5,772.00,800.0
2023-03-15,12:20:00,DRY,4.60,14.93,6.3,772.00,800.7
2023-03-15,12:25:00,DRY,3.35,14.90,7.0,772.00,800.0
2023-03-15,12:30:00,DRY,3.00,15.10,6.7,772.00,800.0
2023-03-15,12:35:00,DRY,4.05,14.90,6.0,772.00,800.0
2023-03-15,12:40:00,DRY,2.50,15.13,6.3,772.00,800.0
2023-03-15,12:45:00,DRY,4.65,15.35,6.0,772.00,800.0
2023-03-15,12:50:00,DRY,4.20,15.40,6.3,772.00,800.3
2023-03-15,12:55:00,DRY,4.65,15.20,6.5,772.00,800.5
2023-03-15,13:00:00,DRY,3.90,15.00,7.0,772.00,782.0
2023-03-15,13:05:00,DRY,1.40,15.05,7.0,772.00,800.0
2023-03-15,13:10:00,DRY,3.13,15.20,7.0,772.00,800.0
2023-03-15,13:15:00,DRY,1.95,15.70,7.5,772.00,800.0
2023-03-15,13:20:00,DRY,3.83,15.70,6.0,772.00,800.3
2023-03-15,13:25:00,DRY,4.35,15.85,7.0,772.00,800.0
2023-03-15,13:30:00,DRY,2.70,16.00,6.5,772.00,800.5
2023-03-15,13:35:00,DRY,2.80,15.80,6.0,772.00,800.0
2023-03-15,13:40:00,DRY,2.13,15.77,7.3,772.00,774.3
2023-03-15,13:45:00,DRY,3.80,15.85,7.0,772.00,800.0
2023-03-15,13:50:00,DRY,3.63,15.73,6.7,772.00,800.0
2023-03-15,13:55:00,DRY,2.05,15.80,6.5,772.00,800.0
2023-03-15,14:00:00,DRY,4.87,15.93,6.7,772.00,800.0
2023-03-15,14:05:00,DRY,6.25,15.95,6.0,772.00,800.0
2023-03-15,14:10:00,DRY,2.30,16.07,5.7,772.00,782.3
2023-03-15,14:15:00,DRY,3.65,15.65,6.0,772.00,761.0
2023-03-15,14:20:00,DRY,3.63,15.47,6.3,772.00,800.3
2023-03-15,14:25:00,DRY,3.20,15.55,6.5,772.00,783.0
2023-03-15,14:30:00,DRY,3.23,15.53,5.7,772.00,800.0
2023-03-15,14:35:00,DRY,2.40,15.90,6.0,772.00,800.0
2023-03-15,14:40:00,DRY,3.53,15.90,6.0,772.00,800.3
2023-03-15,14:45:00,DRY,3.85,16.25,6.5,772.00,800.0
2023-03-15,14:50:00,DRY,3.10,16.07,5.7,772.00,800.0
2023-03-15,14:55:00,DRY,4.25,15.85,6.0,771.50,800.0
2023-03-15,15:00:00,DRY,4.27,15.83,5.7,771.67,800.3
2023-03-15,15:05:00,DRY,3.75,15.80,6.0,771.00,800.0
2023-03-15,15:10:00,DRY,4.47,15.83,6.7,771.00,800.0
2023-03-15,15:15:00,DRY,3.65,15.90,6.5,771.00,800.0
2023-03-15,15:20:00,DRY,5.30,15.67,7.0,771.00,800.0
2023-03-15,15:25:00,DRY,3.95,15.40,7.0,771.00,800.0
2023-03-15,15:30:00,DRY,3.53,15.57,6.7,771.00,800.0
2023-03-15,15:35:00,DRY,3.15,15.50,7.5,771.00,795.0
2023-03-15,15:40:00,DRY,3.60,15.60,7.0,771.00,782.0
2023-03-15,15:45:00,DRY,2.55,15.60,7.5,771.00,765.0
2023-03-15,15:50:00,DRY,1.73,15.83,8.0,771.00,748.7
2023-03-15,15:55:00,DRY,3.05,15.80,9.0,771.00,733.0
2023-03-15,16:00:00,DRY,2.77,15.50,9.0,771.00,717.0
2023-03-15,16:05:00,DRY,1.70,15.50,8.5,771.00,698.5
2023-03-15,16:10:00,DRY,1.67,15.43,7.0,771.00,683.7
2023-03-15,16:15:00,DRY,2.55,15.50,8.0,771.00,666.5
2023-03-15,16:20:00,DRY,2.70,15.30,8.3,771.00,653.0
2023-03-15,16:25:00,DRY,3.10,15.60,7.0,771.00,634.0
2023-03-15,16:30:00,DRY,2.53,15.50,7.3,771.00,614.7
2023-03-15,16:35:00,DRY,1.20,15.55,8.0,771.00,598.5